This demonstration page uses our WeatherBlox Daily Observations layout. Learn more.

39.92423, -83.80882

Hourly Observations for April 30, 2019

Temp ( °F °C ) Dew Point ( °F °C ) Humidity (%) Winds ( mph kmh ) Pressure ( in mb ) Visibility ( mi km ) Precip ( " mm )
12:31 am 00:31 Mostly Cloudy 52 11 50 10 94 94 NNW 7 11 30.15 1021 9 14.48406 0 0
12:56 am 00:56 Cloudy 52 11.1 51 10.6 97 97 NNW 10 17 30.15 1021 10 16.0934 0 0
1:56 am 01:56 Cloudy 52 11.1 50 10 93 93 NNW 8 13 30.16 1021 10 16.0934 0 0
2:56 am 02:56 Cloudy 52 11.1 50 10 93 93 NNW 6 9 30.16 1021 10 16.0934 0 0
3:56 am 03:56 Cloudy 52 11.1 50 10 93 93 NNE 6 9 30.16 1021 10 16.0934 0 0
4:04 am 04:04 Cloudy 52 11 50 10 94 94 N 10 17 30.16 1021 10 16.0934 0 0
4:56 am 04:56 Cloudy 50 10 49 9.4 96 96 NE 5 7 30.16 1021 10 16.0934 0 0
5:42 am 05:42 Cloudy 50 10 48 9 94 94 N 6 9 30.2 1023 10 16.0934 0 0
5:56 am 05:56 Cloudy 50 10 48 8.9 93 93 NNE 6 9 30.19 1022 10 16.0934 0 0
6:56 am 06:56 Cloudy 50 10 47 8.3 89 89 Calm 30.22 1023 10 16.0934 0 0
7:52 am 07:52 Cloudy 50 10 48 9 94 94 ENE 6 9 30.23 1024 10 16.0934 0 0
7:56 am 07:56 Cloudy 50 10 48 8.9 93 93 E 7 11 30.22 1023 10 16.0934 0 0
8:56 am 08:56 Cloudy with Mist and Fog 49 9.4 48 8.9 97 97 E 8 13 30.23 1024 6 9.65604 0 0
9:56 am 09:56 Cloudy 52 11.1 49 9.4 89 89 ENE 9 15 30.23 1024 10 16.0934 0 0
10:16 am 10:16 Cloudy 52 11 48 9 88 88 E 8 13 30.24 1024 10 16.0934 0 0
10:56 am 10:56 Cloudy 54 12.2 50 10 87 87 E 9 15 30.24 1024 10 16.0934 0 0
11:56 am 11:56 Cloudy 55 12.8 50 10 83 83 VRB 6 9 30.26 1025 10 16.0934 0 0
12:11 pm 12:11 Cloudy 55 13 50 10 82 82 NE 7 11 30.26 1025 10 16.0934 0 0
12:56 pm 12:56 Cloudy 53 11.7 49 9.4 86 86 NNE 13 20 30.28 1025 9 14.48406 0 0
1:11 pm 13:11 Cloudy 52 11 48 9 88 88 NE 15 24 30.25 1024 7 11.26538 0 0
1:56 pm 13:56 Cloudy 55 12.8 50 10 83 83 ENE 16 26 30.22 1024 10 16.0934 0 0
2:19 pm 14:19 Mostly Cloudy 54 12 48 9 82 82 ENE 13 20 30.23 1024 10 16.0934 0 0
2:56 pm 14:56 Mostly Cloudy 57 13.9 51 10.6 81 81 E 10 17 30.23 1024 10 16.0934 0 0
3:56 pm 15:56 Cloudy 59 15 53 11.7 81 81 ESE 9 15 30.21 1023 7 11.26538 0 0
4:56 pm 16:56 Mostly Cloudy 61 16.1 55 12.8 81 81 E 13 20 30.17 1022 10 16.0934 0 0
5:56 pm 17:56 Partly Cloudy 63 17.2 56 13.3 78 78 E 13 20 30.15 1021 10 16.0934 0 0
6:56 pm 18:56 Partly Cloudy 62 16.7 56 13.3 80 80 E 12 19 30.14 1021 10 16.0934 0 0
7:56 pm 19:56 Sunny 59 15 55 12.8 87 87 E 9 15 30.14 1021 10 16.0934 0 0
8:56 pm 20:56 Clear 58 14.4 54 12.2 87 87 E 10 17 30.13 1020 10 16.0934 0 0
9:56 pm 21:56 Clear 57 13.9 54 12.2 90 90 ESE 12 19 30.12 1020 10 16.0934 0 0
10:56 pm 22:56 Clear 57 13.9 54 12.2 90 90 ESE 12 19 30.11 1020 10 16.0934 0 0
11:56 pm 23:56 Clear 56 13.3 54 12.2 93 93 ESE 9 15 30.08 1019 10 16.0934 0 0

Powered by AerisWeather